Wind_Speed
40 39 39 38 35 33 30 28 26 26 22 20 22 22 21 23 24 24 24 23 23 23 21 22 22 22 23 23 21 18 20 21 22 22 21 20 18 17 20 22 24 24 22 22 23 20 9
39 41 41 42 39 36 34 29 29 29 27 27 27 29 27 25 24 23 23 24 23 24 23 24 24 24 23 22 20 18 20 21 22 20 21 18 17 15 14 15 17 18 17 16 14 13 11
41 40 42 42 41 41 39 39 36 34 33 32 32 33 31 27 26 23 22 22 23 25 24 23 24 23 22 20 19 20 21 23 23 22 20 20 17 14 12 13 12 13 13 13 10 6 4
45 45 44 45 42 43 44 44 41 39 38 35 33 33 32 29 27 24 23 21 23 25 25 24 24 20 18 20 21 23 24 25 24 22 19 19 19 17 15 14 13 13 13 13 13 12 11
49 48 46 45 44 39 40 42 43 40 38 37 36 33 30 27 27 26 26 24 23 24 24 24 22 20 19 22 24 27 26 24 24 22 20 18 16 16 17 18 16 16 16 17 16 18 17
53 52 49 48 45 43 39 36 34 34 32 32 32 31 31 30 29 29 28 27 26 26 25 25 24 23 24 27 29 26 24 22 21 20 19 18 16 16 17 18 20 20 21 22 23 23 25
54 55 53 51 49 47 44 42 39 35 33 32 31 30 33 31 30 30 26 26 28 29 28 28 27 27 28 28 25 24 22 20 18 17 17 19 20 20 20 22 24 25 25 27 28 28 30
61 58 56 55 53 50 47 44 43 42 40 38 36 32 37 35 33 29 27 25 27 28 29 30 28 28 25 27 25 24 23 23 22 23 24 25 26 27 28 29 31 32 32 33 34 35 36
68 66 63 60 56 54 52 50 48 48 45 43 43 42 42 40 36 33 32 29 27 29 30 29 28 26 28 27 25 25 25 25 26 27 28 30 28 28 30 31 32 32 33 35 38 40 43
73 70 71 67 65 62 60 55 54 51 49 48 47 46 44 43 37 35 34 33 30 28 29 28 27 27 29 27 27 27 26 27 29 30 31 30 32 34 34 36 35 37 36 38 41 44 48
81 78 74 71 69 67 61 57 54 53 52 50 50 45 43 42 40 38 37 35 33 30 29 30 30 29 31 30 26 25 27 29 30 30 30 31 34 37 39 40 42 40 42 42 44 43 45
83 81 76 73 70 66 61 57 55 52 52 49 47 44 44 44 44 41 40 38 36 35 34 35 35 35 34 31 32 34 35 36 36 38 39 39 41 42 45 42 44 43 46 47 52 51 50
91 87 84 78 73 70 65 61 57 54 53 52 50 46 46 46 47 46 44 43 38 39 41 39 39 38 38 37 36 35 38 41 43 44 44 43 47 48 50 50 50 51 50 55 56 55 56
97 93 90 86 82 73 68 64 61 57 54 57 52 49 49 48 49 50 50 47 43 44 46 42 42 41 40 41 41 40 42 45 48 47 46 49 53 56 55 57 56 58 59 61 63 63 63
102 99 94 87 84 81 74 67 63 60 55 58 56 54 53 51 52 54 54 49 50 50 50 48 44 43 44 43 44 46 50 53 52 52 53 56 57 60 62 63 64 65 67 67 68 71 70
108 104 99 93 93 90 82 74 69 63 62 58 61 58 56 55 53 55 56 54 56 57 54 48 47 45 46 47 49 53 55 58 59 60 61 62 64 66 69 69 71 69 70 72 74 78 76
112 106 104 98 97 93 88 80 75 70 67 65 62 62 63 61 60 57 53 57 59 59 58 53 52 51 48 52 51 55 56 60 62 63 65 67 70 74 74 73 77 76 76 74 81 83 86
117 112 108 103 96 96 93 87 82 77 72 70 69 69 68 70 67 61 61 59 59 60 61 61 59 58 57 57 59 60 62 67 66 70 74 74 76 78 81 84 84 82 79 82 86 89 91
121 118 113 106 103 100 100 96 91 84 79 77 75 74 72 70 69 63 64 64 63 66 65 64 66 65 65 64 66 67 71 76 78 79 80 82 84 85 85 84 84 84 87 87 89 92 92
126 123 117 113 106 104 101 96 96 94 87 85 81 79 77 77 72 69 69 69 67 68 69 67 67 68 69 70 72 72 77 81 80 80 84 85 86 87 87 85 84 86 89 91 94 94 92
128 127 123 119 114 108 103 100 95 92 93 96 92 85 83 80 77 76 76 73 71 71 73 74 74 75 76 78 78 78 80 82 83 84 85 89 88 89 92 87 88 88 95 99 102 100 99
131 128 126 124 121 115 113 114 105 99 95 98 97 92 89 85 84 82 80 76 78 78 79 80 78 79 77 79 81 79 82 84 85 86 88 89 91 92 93 94 94 94 103 105 102 100 102
135 132 128 128 126 120 116 115 109 106 108 104 101 96 94 91 91 87 82 84 83 83 84 84 82 82 81 82 84 81 82 87 89 93 96 98 98 96 94 96 102 103 107 108 105 101 100
136 131 127 127 128 125 120 118 114 113 110 105 104 100 98 94 94 90 91 90 90 90 90 88 91 87 87 87 86 89 91 92 94 98 101 100 103 101 104 106 106 105 105 102 98 98 97
127 134 131 127 127 126 124 120 120 118 114 109 108 104 98 99 97 95 93 91 89 90 91 90 88 88 90 90 91 89 92 93 97 98 103 108 108 108 109 111 108 101 104 102 100 96 96
128 124 133 131 129 128 127 124 124 122 119 115 112 106 103 102 100 99 99 94 92 93 93 91 92 94 94 93 95 94 96 99 102 106 107 110 112 114 109 107 103 98 103 102 102 100 101
130 127 131 130 131 132 130 126 126 122 121 116 115 112 107 105 106 104 102 100 98 95 95 97 100 101 99 100 101 98 100 104 106 106 110 110 108 103 105 105 98 102 102 105 107 107 108
132 125 120 131 129 130 128 127 126 124 119 119 117 114 110 107 103 104 104 104 107 102 101 101 101 100 105 104 102 103 105 106 107 107 102 102 101 104 105 106 102 102 106 110 107 107 108
121 135 134 126 124 129 130 128 127 122 121 119 119 117 114 112 109 104 105 106 107 108 108 105 105 107 105 104 105 109 108 105 104 103 99 101 104 106 104 105 107 108 110 108 110 112 112
Wind_Direction
224 225 223 225 226 227 230 228 231 235 236 258 273 281 290 291 294 296 283 288 290 296 301 306 309 315 321 330 337 344 347 351 359 360 7 10 7 14 18 19 21 31 38 53 58 62 97
231 229 228 228 231 233 235 238 236 243 248 262 266 274 285 287 292 293 285 285 288 291 296 301 305 308 315 322 330 333 337 345 352 352 354 358 4 9 3 8 9 10 22 35 45 65 77
233 233 232 232 237 237 237 241 245 246 254 260 265 271 277 279 279 283 284 288 285 288 294 299 304 305 307 313 320 325 328 333 338 345 341 344 343 351 356 353 346 346 352 354 3 17 27
236 235 236 238 240 240 240 244 249 252 254 260 265 269 271 271 267 271 274 283 284 287 292 297 302 298 302 309 316 319 319 322 326 331 333 334 331 329 333 334 333 325 320 314 315 314 305
238 238 239 241 243 243 245 248 252 255 259 262 266 267 265 262 263 268 271 276 283 287 287 292 295 297 302 309 312 317 318 319 320 322 325 327 325 325 324 326 325 323 320 306 297 293 287
240 241 240 241 243 244 246 249 255 256 257 259 262 262 262 264 265 264 265 273 280 285 287 291 294 295 299 304 307 313 316 317 318 319 322 322 318 310 311 310 313 309 310 307 302 294 288
241 243 244 243 241 242 243 247 250 252 255 261 263 258 261 266 265 265 263 274 277 278 282 284 288 291 298 304 306 308 309 309 307 311 310 307 304 303 303 302 304 305 302 299 296 291 286
235 239 244 245 245 242 246 244 251 253 252 253 257 258 261 264 263 258 261 272 275 275 280 284 286 289 293 302 302 302 304 304 301 304 303 304 307 309 309 309 309 307 306 302 300 293 287
235 237 238 239 244 245 246 247 252 253 252 254 255 256 260 260 258 258 263 268 276 277 279 283 285 288 293 297 298 299 301 299 297 298 299 300 302 305 305 307 306 306 303 299 299 296 294
235 236 236 237 238 239 242 245 249 250 252 251 253 257 256 259 252 259 264 268 276 274 279 279 281 283 290 290 291 294 297 298 297 296 296 298 295 300 305 310 309 311 308 306 310 308 302
236 236 236 237 239 241 242 245 250 249 250 248 251 254 255 252 254 263 262 271 275 271 275 277 278 279 283 281 282 287 293 298 301 299 300 302 305 307 309 309 312 303 309 310 315 315 310
233 235 235 235 236 237 241 246 248 249 248 246 245 247 250 251 256 263 266 270 273 269 268 270 273 276 275 273 282 287 289 295 299 299 299 302 306 303 306 306 307 305 300 303 309 313 309
234 239 238 237 235 236 239 243 245 247 248 245 247 249 252 255 259 263 269 271 271 271 267 266 269 271 271 272 279 280 288 296 300 300 299 300 299 301 304 304 301 304 299 302 307 311 310
235 237 241 240 239 237 239 240 243 245 248 246 249 254 252 255 257 261 267 270 271 269 269 266 268 269 267 273 276 279 288 293 295 295 293 295 299 302 302 303 302 304 303 306 305 308 310
236 236 237 239 241 239 237 238 241 243 245 246 248 254 253 254 259 262 266 269 267 270 269 268 266 267 271 274 281 283 287 291 293 292 293 296 297 300 303 304 306 305 303 305 305 307 308
234 235 235 237 240 240 237 237 240 241 242 245 248 250 251 257 260 258 260 264 264 268 270 268 267 270 271 275 279 285 286 288 291 294 296 297 298 299 301 303 304 303 301 301 303 306 308
232 233 232 235 238 240 240 239 240 242 244 243 246 247 249 253 255 255 258 259 263 266 264 266 267 268 267 272 278 281 282 285 288 291 293 295 298 298 300 302 303 303 302 300 305 305 307
231 232 233 234 235 238 240 240 240 240 243 246 247 247 248 253 255 256 257 260 262 264 266 262 264 268 268 270 273 281 286 287 287 290 293 296 298 298 301 303 302 301 302 303 305 306 305
229 231 231 231 233 235 239 240 241 240 242 244 245 247 249 254 254 255 259 259 260 264 266 266 268 269 273 277 279 284 285 286 290 292 296 297 297 297 298 299 298 300 300 302 304 305 303
228 230 231 231 230 233 236 239 241 243 243 243 246 248 249 252 254 255 256 257 260 263 266 269 272 274 276 278 280 282 285 288 290 292 294 295 296 293 294 297 298 301 300 303 304 305 305
226 229 230 231 233 233 235 236 237 239 242 244 245 246 249 252 253 255 257 257 261 265 268 270 271 272 275 278 281 284 285 288 290 292 293 293 292 294 296 294 299 303 301 303 306 306 308
226 229 229 231 234 235 235 237 237 240 241 240 244 248 251 254 255 257 259 263 266 267 268 269 271 273 276 280 282 284 286 287 288 291 292 292 293 295 295 297 300 301 303 305 307 305 304
224 228 229 231 233 235 236 238 240 241 243 245 246 247 250 252 255 258 260 261 264 267 270 271 272 274 275 278 280 282 283 284 287 290 291 294 295 295 298 296 299 303 305 304 307 305 304
220 227 229 232 233 235 236 237 239 239 242 246 249 250 253 255 256 256 257 261 264 267 271 273 275 277 278 279 280 282 283 286 288 289 293 295 296 297 297 300 302 304 304 302 303 304 303
216 223 228 230 232 234 236 237 241 241 242 244 246 249 251 254 257 258 260 261 264 267 270 272 273 273 274 277 279 281 285 286 289 292 292 296 297 299 300 303 306 305 301 301 304 304 301
210 219 224 227 230 232 236 238 238 241 244 246 246 249 250 253 254 257 259 261 263 266 267 267 269 272 276 279 283 286 286 289 291 292 293 294 296 300 300 301 302 301 300 302 302 301 302
210 214 221 224 228 232 234 236 240 242 244 246 246 248 249 253 256 257 259 260 263 267 269 272 273 274 277 281 284 284 284 288 291 293 294 296 296 295 295 299 300 301 302 300 300 301 301
209 210 220 221 226 230 234 235 239 240 244 246 246 247 248 250 253 256 258 260 266 270 273 275 278 281 280 282 282 283 285 289 291 294 293 291 291 293 295 297 301 299 298 299 300 300 301
211 211 217 221 223 227 231 234 237 239 242 246 249 252 252 251 253 256 258 262 265 268 271 275 278 279 280 281 282 283 287 289 292 292 290 289 291 292 292 298 299 299 299 298 299 300 300
Height
10739 10743 10745 10748 10750 10752 10754 10756 10758 10759 10760 10762 10763 10763 10764 10764 10764 10764 10763 10763 10762 10761 10761 10760 10759 10758 10757 10756 10754 10751 10749 10746 10743 10740 10738 10735 10732 10731 10729 10726 10724 10723 10721 10720 10720 10721 10724
10733 10736 10739 10741 10744 10746 10749 10751 10753 10755 10756 10757 10758 10758 10759 10760 10760 10759 10759 10759 10758 10758 10758 10757 10756 10756 10755 10753 10752 10750 10748 10745 10743 10741 10738 10736 10734 10732 10731 10730 10729 10727 10726 10726 10726 10726 10727
10724 10728 10731 10734 10737 10740 10742 10744 10747 10749 10750 10751 10752 10753 10754 10755 10756 10755 10755 10755 10754 10754 10754 10754 10753 10752 10752 10751 10749 10748 10746 10744 10742 10740 10739 10736 10734 10732 10731 10731 10730 10730 10729 10729 10729 10730 10730
10716 10719 10722 10726 10729 10732 10735 10737 10740 10742 10744 10745 10746 10747 10749 10749 10750 10750 10751 10751 10751 10751 10750 10750 10750 10749 10748 10747 10746 10745 10743 10742 10740 10738 10737 10735 10734 10732 10731 10730 10730 10730 10730 10730 10729 10730 10730
10706 10710 10714 10717 10721 10724 10727 10730 10732 10734 10736 10738 10740 10741 10743 10744 10745 10746 10746 10747 10747 10747 10746 10746 10746 10745 10745 10744 10742 10741 10739 10738 10736 10735 10734 10733 10732 10731 10730 10729 10729 10728 10727 10727 10727 10727 10727
10695 10700 10704 10708 10712 10716 10719 10722 10725 10727 10729 10731 10733 10734 10736 10738 10739 10740 10741 10742 10742 10742 10742 10741 10741 10742 10741 10740 10738 10737 10735 10734 10733 10732 10731 10730 10729 10729 10728 10728 10727 10725 10725 10724 10722 10722 10721
10683 10688 10694 10699 10703 10707 10710 10713 10716 10719 10721 10723 10726 10727 10729 10731 10732 10734 10735 10737 10737 10737 10737 10737 10736 10736 10736 10735 10734 10733 10732 10731 10730 10729 10728 10727 10726 10725 10725 10724 10723 10722 10721 10721 10719 10717 10715
10668 10674 10681 10687 10692 10697 10701 10705 10708 10711 10713 10716 10718 10720 10722 10724 10726 10728 10729 10730 10731 10731 10731 10731 10732 10731 10731 10730 10729 10728 10727 10726 10726 10725 10724 10723 10722 10721 10719 10718 10717 10716 10715 10714 10712 10710 10707
10654 10660 10666 10673 10679 10685 10690 10695 10699 10702 10704 10707 10710 10712 10714 10716 10719 10720 10723 10724 10725 10724 10725 10726 10726 10725 10725 10724 10723 10722 10722 10721 10720 10719 10718 10716 10715 10714 10713 10711 10710 10708 10707 10706 10704 10703 10699
10640 10645 10652 10659 10665 10671 10677 10683 10688 10691 10694 10697 10700 10703 10705 10707 10710 10712 10715 10717 10718 10718 10718 10718 10719 10719 10719 10718 10717 10716 10715 10714 10713 10713 10712 10710 10708 10707 10706 10704 10702 10700 10699 10697 10696 10693 10689
10622 10629 10637 10644 10651 10659 10666 10671 10676 10680 10683 10686 10690 10693 10696 10699 10702 10704 10707 10710 10711 10712 10712 10711 10711 10711 10711 10710 10709 10709 10708 10707 10706 10705 10704 10702 10701 10699 10697 10696 10694 10693 10691 10689 10686 10683 10679
10605 10614 10622 10629 10637 10644 10653 10659 10665 10669 10672 10676 10680 10683 10687 10690 10692 10695 10698 10701 10703 10704 10704 10703 10703 10703 10702 10701 10701 10700 10699 10698 10697 10696 10695 10693 10691 10689 10687 10685 10683 10681 10679 10676 10674 10671 10667
10591 10599 10606 10614 10623 10631 10639 10647 10652 10657 10661 10665 10669 10673 10678 10681 10684 10686 10689 10692 10695 10694 10694 10695 10694 10693 10692 10692 10691 10691 10690 10688 10687 10686 10683 10682 10679 10677 10676 10674 10671 10668 10665 10663 10661 10656 10653
10574 10583 10591 10598 10607 10618 10626 10633 10639 10644 10648 10653 10658 10663 10667 10670 10673 10676 10679 10683 10686 10683 10682 10685 10685 10684 10682 10682 10681 10681 10680 10677 10675 10674 10673 10671 10667 10665 10663 10661 10658 10655 10651 10647 10645 10642 10640
10557 10563 10574 10583 10590 10601 10611 10619 10626 10630 10635 10641 10646 10651 10655 10659 10663 10665 10668 10674 10674 10672 10671 10674 10675 10675 10672 10672 10672 10670 10668 10665 10661 10660 10659 10657 10655 10652 10650 10647 10645 10641 10635 10631 10627 10624 10623
10535 10547 10556 10566 10573 10583 10595 10604 10611 10616 10622 10627 10632 10638 10643 10647 10650 10653 10658 10664 10662 10660 10661 10663 10664 10664 10663 10660 10660 10659 10657 10652 10649 10646 10644 10642 10641 10636 10634 10632 10629 10624 10619 10614 10609 10606 10604
10513 10528 10538 10547 10554 10567 10578 10587 10595 10600 10607 10613 10617 10624 10629 10632 10635 10640 10647 10649 10649 10647 10649 10651 10651 10650 10651 10647 10648 10646 10644 10637 10636 10632 10630 10627 10626 10622 10617 10615 10610 10606 10601 10596 10591 10585 10581
10492 10505 10518 10530 10538 10547 10559 10569 10578 10585 10593 10598 10602 10608 10614 10615 10621 10630 10634 10635 10635 10634 10635 10638 10638 10637 10637 10636 10635 10633 10628 10623 10620 10617 10615 10611 10609 10605 10601 10598 10594 10588 10581 10576 10571 10566 10557
10472 10483 10496 10511 10521 10527 10537 10552 10561 10569 10575 10580 10587 10593 10597 10600 10609 10616 10617 10619 10621 10620 10620 10625 10625 10623 10621 10621 10619 10618 10612 10606 10605 10602 10600 10595 10592 10587 10585 10583 10576 10571 10563 10556 10551 10543 10537
10445 10462 10477 10491 10503 10513 10519 10530 10543 10552 10559 10565 10569 10575 10582 10586 10597 10600 10601 10603 10606 10607 10606 10608 10608 10608 10605 10606 10605 10604 10595 10590 10588 10585 10582 10578 10573 10568 10566 10567 10562 10554 10542 10534 10529 10520 10518
10426 10441 10455 10469 10484 10498 10504 10511 10523 10532 10542 10545 10549 10560 10566 10574 10579 10581 10582 10591 10591 10591 10590 10590 10593 10591 10590 10591 10588 10585 10578 10573 10570 10569 10564 10562 10558 10550 10543 10547 10542 10538 10523 10513 10507 10495 10491
10404 10419 10435 10448 10460 10478 10486 10487 10501 10515 10519 10521 10531 10541 10548 10555 10559 10563 10569 10577 10574 10573 10574 10574 10576 10574 10576 10574 10570 10566 10561 10557 10554 10549 10544 10542 10539 10534 10525 10519 10521 10519 10496 10487 10480 10474 10466
10380 10398 10415 10428 10439 10453 10466 10474 10487 10494 10498 10502 10512 10524 10531 10538 10545 10546 10556 10554 10555 10556 10555 10557 10559 10560 10559 10555 10553 10549 10545 10541 10537 10530 10525 10523 10513 10512 10513 10496 10496 10495 10480 10463 10455 10444 10434
10361 10381 10395 10409 10418 10430 10442 10454 10465 10472 10479 10488 10497 10505 10511 10520 10526 10531 10534 10535 10536 10536 10534 10539 10541 10541 10538 10536 10534 10532 10528 10522 10518 10512 10503 10497 10490 10487 10488 10477 10480 10470 10455 10441 10435 10429 10413
10345 10361 10374 10388 10399 10405 10419 10433 10442 10451 10463 10475 10479 10485 10498 10500 10508 10512 10515 10519 10519 10517 10515 10520 10523 10522 10519 10518 10515 10513 10508 10505 10497 10493 10483 10472 10465 10460 10455 10449 10451 10443 10424 10416 10412 10409 10387
10329 10341 10352 10366 10375 10388 10396 10407 10421 10432 10443 10455 10462 10470 10479 10482 10490 10494 10496 10500 10501 10501 10498 10503 10502 10501 10501 10497 10494 10494 10485 10481 10479 10473 10462 10450 10442 10434 10425 10420 10425 10419 10402 10396 10386 10385 10370
10304 10324 10332 10346 10356 10366 10377 10389 10398 10412 10423 10434 10443 10453 10463 10467 10468 10473 10477 10481 10481 10481 10480 10480 10481 10482 10479 10476 10472 10472 10468 10462 10458 10450 10440 10428 10420 10411 10397 10394 10402 10387 10381 10372 10362 10354 10348
10281 10308 10314 10329 10337 10351 10360 10369 10378 10391 10399 10409 10420 10431 10444 10449 10451 10455 10459 10459 10460 10459 10457 10457 10460 10460 10455 10454 10452 10449 10448 10440 10435 10427 10418 10409 10400 10389 10379 10373 10376 10369 10359 10347 10338 10330 10320
10262 10288 10298 10305 10324 10331 10338 10351 10358 10369 10378 10388 10399 10408 10420 10429 10434 10441 10441 10441 10441 10440 10440 10439 10440 10436 10435 10433 10430 10428 10425 10419 10413 10409 10397 10389 10378 10367 10359 10361 10347 10340 10332 10323 10315 10304 10293